Regional Weather Roundup
Issued by NWS Grand Forks, ND

Home | Current Version | Previous Version | Graphics & Text | Print | Product List | Glossary On
Versions: 1 2 3 4 5 6 7 8 9 10 11 12 13 14 15 16 17 18 19 20 21 22 23 24 25 26 27 28 29 30 31 32 33 34 35 36 37 38 39 40 41 42 43 44 45 46 47 48 49 50
000
ASUS43 KFGF 180031
RWRFGF
PRAIRIE TO PINES  WEATHER ROUNDUP
NATIONAL WEATHER SERVICE EASTERN NORTH DAKOTA/GRAND FORKS ND
600 PM CST TUE JAN 17 2017

 **SATELLITE DATA USED TO AUGMENT SKY COVER AT AUTOMATED STATIONS**
 *****  WEATHER ACROSS EASTERN NORTH DAKOTA  *****

CITY           SKY/WX    TMP DP  RH WIND       PRES   REMARKS
GRAND FORKS    FAIR      21  16  81 S17       29.76F WCI   7
6HR MIN TEMP:  16; 6HR MAX TEMP:  23;

GRAND FRKS AFB CLEAR     25  19  77 S18       29.73F WCI  12
DEVILS LAKE    FAIR      25  18  74 SW17      29.66F WCI  12
6HR MIN TEMP:  23; 6HR MAX TEMP:  28;

FARGO          FAIR      21  17  84 S14       29.86F WCI   8
WAHPETON ARPT  FAIR      19  16  86 SE10      29.91F WCI   8
$$

 ***** WEATHER ACROSS CENTRAL AND WESTERN NORTH DAKOTA  *****

CITY           SKY/WX    TMP DP  RH WIND       PRES   REMARKS
BISMARCK       FAIR      28  17  63 SW6       29.79S WCI  22
6HR MIN TEMP:  13; 6HR MAX TEMP:  34;

MINOT          FAIR      34  22  61 SW20G28   29.65S WCI  23
6HR MIN TEMP:  25; 6HR MAX TEMP:  35;

JAMESTOWN      FAIR      26  17  68 S14       29.77F WCI  14
6HR MIN TEMP:  25; 6HR MAX TEMP:  32;

MINOT AFB      FAIR      31  22  71 W17       29.63S WCI  19
GARRISON         N/A     27  20  75 SW7       29.71S WCI  19
WILLISTON      FAIR      30  20  66 SW10      29.72R WCI  21
6HR MIN TEMP:  21; 6HR MAX TEMP:  30;

DICKINSON      FAIR      30  20  66 W15       29.75S WCI  19
6HR MIN TEMP:  27; 6HR MAX TEMP:  31;

HETTINGER      FAIR      28  18  66 CALM      29.83R
6HR MIN TEMP:  26; 6HR MAX TEMP:  33;

$$

 *****  OTHER AIRPORT OBSERVATIONS IN OUR AREA  *****

CITY           SKY/WX    TMP DP  RH WIND       PRES   REMARKS
WALHALLA       NOT AVBL
GRAFTON AIRPOR FAIR      21  18  86 S20       29.71F WCI   6
VALLEY CITY AR FLURRIES  21  21 100 SW17      29.81F WCI   7
CANDO          NOT AVBL
CAVALIER APRT    N/A     27  19  74 S13       29.66S WCI  16
GWINNER        FAIR      21  18  86 SW17      29.87S WCI   7
SHEYENNE NWR     N/A     19  13  78 SW8       29.95S WCI   9
ROLLA            N/A    N/A N/A N/A MISG        N/A
 ***** THE ABOVE OBSERVATIONS ARE NON NWS ARE NOT QUALITY
       CONTROLLED AND MAY MIS-REPORT RAIN FOR SNOW...
$$

  *****  WEATHER ACROSS NORTHERN MINNESOTA  *****

CITY           SKY/WX    TMP DP  RH WIND       PRES   REMARKS
FLAG ISLAND    FAIR      18  16  93 S12       29.70F WCI   5
WARROAD        FAIR      27  21  80 S9        29.71F WCI  17
ROSEAU         FAIR      25  19  80 S17       29.71F WCI  11
HALLOCK        FAIR      19  16  86 S26       29.69F FOG     WCI   1
THF RVR FALLS  FAIR      22  18  85 S16       29.78F WCI   8
6HR MIN TEMP:  16; 6HR MAX TEMP:  24; 6HR PCP: TRACE;

BAUDETTE       FAIR      25  18  74 S9        29.76F WCI  15
6HR MIN TEMP:  18; 6HR MAX TEMP:  29;

WASKISH        FAIR      21  18  86 S3        29.80F
CROOKSTON      FAIR      19  18  93 S22       29.80F WCI   3
STEPHEN NDAWN    N/A     18  16  93 S23         N/A  WCI   0
GREENBUSH NDAW   N/A     21  18  86 S20         N/A  WCI   6
$$
  *****  WEATHER ACROSS CENTRAL AND WEST MINNESOTA  *****

CITY           SKY/WX    TMP DP  RH WIND       PRES   REMARKS
FOSSTON        FAIR      21  18  86 S17       29.82F WCI   7
BEMIDJI        FAIR      28  20  73 S7        29.83F WCI  20
PARK RAPIDS    FAIR      21  13  71 S5        29.88S WCI  15
6HR MIN TEMP:  16; 6HR MAX TEMP:  27;

ELBOW LAKE     FAIR      16  14  90 SE10      29.92F FOG     WCI   4
6HR MIN TEMP:  11; 6HR MAX TEMP:  20;

WADENA         FAIR      19  14  79 S5        29.90S WCI  13
DETROIT LAKES  FAIR      23  19  86 S8        29.88F WCI  14
MOORHEAD       FAIR      18  12  79 S17       29.88F WCI   2
FERGUS FALLS   FAIR      18  14  86 S10       29.96S WCI   6
MORRIS MN      FAIR      16  12  86 S7        29.94R WCI   6
STAPLES        FAIR      21  14  73 CALM      29.91S
$$
  *****  WEATHER ELSEWHERE ACROSS MINNESOTA  *****

CITY           SKY/WX    TMP DP  RH WIND       PRES   REMARKS
DULUTH         FAIR      29  24  82 SW3       29.88S
6HR MIN TEMP:  27; 6HR MAX TEMP:  37;

INTRNTL FALLS  FAIR      25  15  66 VRB3      29.80F
6HR MIN TEMP:  22; 6HR MAX TEMP:  32;

ELY            FAIR      28  19  69 S3        29.83F
CLOQUET        FAIR      34  23  64 SW6       29.89S
WHEATON        FAIR      27  23  86 S10       29.95S WCI  17
BRAINERD       FAIR      25  15  66 S7        29.91F WCI  17
6HR MIN TEMP:  20; 6HR MAX TEMP:  31;

HIBBING        FAIR      28  14  55 S3        29.86F
6HR MIN TEMP:  17; 6HR MAX TEMP:  35;

ALEXANDRIA     FAIR      18  14  84 S6        29.92F WCI  10
6HR MIN TEMP:  18; 6HR MAX TEMP:  25;

SAINT CLOUD    FOG       26  26 100 SW9       29.96S VSB 1/4 WCI  17
6HR MIN TEMP:  27; 6HR MAX TEMP:  30;

MINNEAPOLIS    CLOUDY    33  30  88 W8        29.99S
6HR MIN TEMP:  33; 6HR MAX TEMP:  35;

$$

  *****  WEATHER ACROSS SOUTH DAKOTA  *****

CITY           SKY/WX    TMP DP  RH WIND       PRES   REMARKS
SIOUX FALLS    FAIR      29  23  78 S6        30.00S WCI  23
6HR MIN TEMP:  24; 6HR MAX TEMP:  33;

BROOKINGS      FAIR      24  20  84 S9        29.95F WCI  14
WATERTOWN      FAIR      18  14  84 S7        29.92F WCI   9
6HR MIN TEMP:  13; 6HR MAX TEMP:  22;

HURON          FAIR      28  23  81 S6        29.94F WCI  22
6HR MIN TEMP:  20; 6HR MAX TEMP:  30;

SISSETON         N/A     25  20  81 S6        29.90S WCI  18
ABERDEEN       FAIR      15  10  80 S8        29.93R WCI   4
6HR MIN TEMP:  13; 6HR MAX TEMP:  21;

MITCHELL       FAIR      31  25  78 S9        29.97S WCI  23
PIERRE         FAIR      20  14  77 S5        29.90S WCI  13
6HR MIN TEMP:  20; 6HR MAX TEMP:  27;

MOBRIDGE       FAIR      17  10  74 SE10      29.84F WCI   5
RAPID CITY     FAIR      35  17  47 CALM      29.88S
6HR MIN TEMP:  24; 6HR MAX TEMP:  39;

$$

  *****  SOME WEATHER IN NEARBY STATES *****

CITY           SKY/WX    TMP DP  RH WIND       PRES   REMARKS
GLASGOW MT     FAIR      31  20  63 S7        29.70S WCI  24
6HR MIN TEMP:  24; 6HR MAX TEMP:  34;

GREAT FALLS MT FAIR      42  23  46 SW22      29.79R
6HR MIN TEMP:  39; 6HR MAX TEMP:  45;

CHEYENNE WY    FAIR      42   6  22 W5        29.99S
6HR MIN TEMP:  41; 6HR MAX TEMP:  52;

SCOTTSBLUFF NE FAIR      41  17  38 W10       29.97S
6HR MIN TEMP:  35; 6HR MAX TEMP:  49;

OMAHA NE       FAIR      30  24  78 SE7       30.10S WCI  23
6HR MIN TEMP:  29; 6HR MAX TEMP:  34;

DES MOINES IA  CLOUDY    36  33  89 W6        30.09R
6HR MIN TEMP:  35; 6HR MAX TEMP:  37;

DAVENPORT IA   CLOUDY    34  32  92 W15       30.04R FOG     WCI  24
6HR MIN TEMP:  34; 6HR MAX TEMP:  36;

CHICAGO IL     CLOUDY    36  34  92 W12       29.95R FOG
6HR MIN TEMP:  36; 6HR MAX TEMP:  39;

EAU CLAIRE WI  FAIR      33  31  92 W7        29.97R
6HR MIN TEMP:  33; 6HR MAX TEMP:  37;

LA CROSSE WI   CLOUDY    36  34  92 NW6       29.98R
6HR MIN TEMP:  35; 6HR MAX TEMP:  36; 6HR PCP:  0.11;

$$

  *****  SOME NATIONAL WEATHER *****

CITY           SKY/WX    TMP DP  RH WIND       PRES   REMARKS
LA GUARDIA NY  RAIN      40  37  89 NE9       30.06F FOG
6HR MIN TEMP:  40; 6HR MAX TEMP:  43; 6HR PCP:  0.12;

RALEIGH NC     CLOUDY    60  56  86 SW8       30.09F
6HR MIN TEMP:  57; 6HR MAX TEMP:  62; 6HR PCP:  0.04;

ATLANTA GA     MOCLDY    68  56  65 W5        30.17R
6HR MIN TEMP:  68; 6HR MAX TEMP:  75;

NEW ORLEANS LA MOCLDY    72  66  81 S8        30.14R
6HR MIN TEMP:  71; 6HR MAX TEMP:  79;

OKLAHOMA CITY  CLOUDY    49  30  48 N6        30.12F
6HR MIN TEMP:  47; 6HR MAX TEMP:  54;

ALBUQUERQUE NM MOCLDY    47  34  60 W8        30.09S
6HR MIN TEMP:  44; 6HR MAX TEMP:  49;

SALT LAKE CITY FAIR      29  20  69 NW7       30.23F HAZE    WCI  22
6HR MIN TEMP:  26; 6HR MAX TEMP:  32;

LOS ANGELES CA FAIR      60  51  72 W9        30.08F
6HR MIN TEMP:  58; 6HR MC1F1C2F2C3F3C4F4C5F5C6F6C7F7C8F8C9F9CaFaCbFbCcFcCd!



USA.gov is the U.S. government's official web portal to all federal, state and local government web resources and services.